Header for Extended Forecast Station List Page

Search by: ID | Name | Date | Parm | Value | Avg | % Avg
Sort by: ID | Name | Date | Parm | Value | Avg | % Avg

Enter search or view all records.

Click on id for station plot
#IDNameDateParmValueAvg% Avg
0HWRI1BIG LOST-AT HOWELL RANCH NEAR CHILLY08-13-2018DISCHARGE (KAF)253084
1MACI1BIG LOST-MACKAY RESERVOIR NEAR MACKAY08-13-2018INFLOW (KAF)3817226
2HALI1BIG WOOD-AT HAILEY08-13-2018DISCHARGE (KAF)374877
3MAGI1BIG WOOD-MAGIC DAM08-13-2018INFLOW (KAF)162857
4BITM8BITTERROOT-NEAR MISSOULA08-13-2018DISCHARGE (KAF)19322785
5BONM8BLACKFOOT-NEAR BONNER08-13-2018DISCHARGE (KAF)179158113
6BIGI1BOISE-AT GLENWOOD BRIDGE08-13-2018DISCHARGE (KAF)108102106
7LUCI1BOISE-LUCKY PEAK DAM08-13-2018INFLOW (KAF)303MM
8PARI1BOISE-NEAR PARMA08-13-2018DISCHARGE (KAF)20822493
9HOTI1BRUNEAU-NEAR HOT SPRINGS08-13-2018DISCHARGE (KAF)172278
10BULO3BULLY CREEK-BULLY CREEK DAM08-13-2018INFLOW (KAF)10197
11BUDW1BUMPING-BUMPING LAKE DAM08-13-2018INFLOW (KAF)2824114
12CHDW1CHELAN-LAKE CHELAN DAM08-13-2018INFLOW (KAF)14818480
13ABOM8CLARK FORK-ABOVE MISSOULA08-13-2018DISCHARGE (KAF)447369121
14DLGM8CLARK FORK-AT DEER LODGE08-13-2018DISCHARGE (KAF)8754162
15SRGM8CLARK FORK-AT ST REGIS08-13-2018DISCHARGE (KAF)789785100
16BELM8CLARK FORK-BELOW MISSOULA08-13-2018DISCHARGE (KAF)646603107
17CABI1CLARK FORK-CABINET GORGE DAM08-13-2018INFLOW (KAF)2620312384
18NOXM8CLARK FORK-NOXON RAPIDS DAM08-13-2018INFLOW (KAF)2381296280
19DRMM8CLARK FORK-NR DRUMMOND08-13-2018DISCHARGE (KAF)185MM
20CLUW1CLE ELUM-CLE ELUM LAKE08-13-2018INFLOW (KAF)697790
21ORFI1CLEARWATER-AT OROFINO08-13-2018DISCHARGE (KAF)42550384
22SPDI1CLEARWATER-AT SPALDING08-13-2018DISCHARGE (KAF)12891154112
23COEI1COEUR D ALENE-COEUR D ALENE LAKE08-13-2018INFLOW (KAF)22230274
24CIBW1COLUMBIA-AT INTL BOUNDARY08-13-2018DISCHARGE (KAF)16113MM
25BONO3COLUMBIA-BONNEVILLE DAM08-13-2018INFLOW (KAF)250622979384
26CHJW1COLUMBIA-CHIEF JOSEPH DAM08-13-2018INFLOW (KAF)164101921685
27GCDW1COLUMBIA-GRAND COULEE DAM08-13-2018INFLOW (KAF)168601832492
28JDAO3COLUMBIA-JOHN DAY DAM08-13-2018INFLOW (KAF)239932707189
29MCDW1COLUMBIA-MCNARY DAM08-13-2018INFLOW (KAF)234682657788
30PRWW1COLUMBIA-PRIEST RAPIDS DAM08-13-2018INFLOW (KAF)173501949189
31RRHW1COLUMBIA-ROCKY REACH DAM08-13-2018INFLOW (KAF)171411993086
32TDAO3COLUMBIA-THE DALLES DAM08-13-2018INFLOW (KAF)245842854286
33WANW1COLUMBIA-WANAPUM DAM08-13-2018INFLOW (KAF)173501918690
34WELW1COLUMBIA-WELLS DAM08-13-2018INFLOW (KAF)167651948486
35DEDI1DEADWOOD-NEAR LOWMAN08-13-2018INFLOW (KAF)171892
36MODO3DESCHUTES-AT MOODY NR BIGGS08-13-2018DISCHARGE (KAF)1029114890
37ARDW1ENTIAT-NEAR ARDENVOIR08-13-2018DISCHARGE (KAF)202582
38CHEI1FALL RIVER-NEAR CHESTER08-13-2018DISCHARGE (KAF)10493112
39CFMM8FLATHEAD-AT COLUMBIA FALLS08-13-2018DISCHARGE (KAF)932113782
40KERM8FLATHEAD-KERR DAM08-13-2018INFLOW (KAF)1089136780
41TRYO3GRANDE RONDE-TROY08-13-2018DISCHARGE (KAF)13521065
42REXI1HENRYS FORK-AT REXBURG08-13-2018DISCHARGE (KAF)569396144
43ANTI1HENRYS FORK-AT ST. ANTHONY08-13-2018DISCHARGE (KAF)476323147
44IPDI1HENRYS FORK-ISLAND PARK DAM08-13-2018INFLOW (KAF)151134113
45HODO3HOOD-NEAR TUCKER BRIDGE08-13-2018DISCHARGE (KAF)126124102
46SERO3JOHN DAY-AT SERVICE CK08-13-2018DISCHARGE (KAF)497863
47KADW1KACHESS-KACHESS DAM08-13-2018INFLOW (KAF)3024123
48LAUW1KETTLE-AT LAURIER08-13-2018DISCHARGE (KAF)9013169
49PITW1KLICKITAT-NEAR PITT08-13-2018DISCHARGE (KAF)18719496
50BFEI1KOOTENAI-AT BONNERS FERRY08-13-2018STAGE (FT)MMM
51LEOI1KOOTENAI-AT LEONIA08-13-2018DISCHARGE (KAF)1805195193
52LYDM8KOOTENAI-LIBBY DAM08-13-2018INFLOW (KAF)980135872
53LWRI1LITTLE WOOD-LITTLE WOOD DAM08-13-2018INFLOW (KAF)1715115
54BERO3MALHEUR-AGENCY VALLEY DAM08-13-2018INFLOW (KAF)8985
55VALO3MALHEUR-NEAR VALE08-13-2018DISCHARGE (KAF)3327122
56WRMO3MALHEUR-WARM SPRINGS DAM08-13-2018INFLOW (KAF)447634
57MYKO3MCKAY CREEK-NEAR PILOT ROCK08-13-2018DISCHARGE (KAF)33105
58PATW1METHOW-NEAR PATEROS08-13-2018DISCHARGE (KAF)9510888
59WGCM8MF FLATHEAD-NEAR WEST GLACIER08-13-2018DISCHARGE (KAF)15420974
60CLFW1NACHES-NEAR CLIFFDEL08-13-2018DISCHARGE (KAF)718089
61NACW1NACHES-NEAR NACHES08-13-2018DISCHARGE (KAF)14793158
62DWRI1NF CLEARWATER-DWORSHAK DAM08-13-2018INFLOW (KAF)32137885
63FCFM8NF FLATHEAD-NEAR COLUMBIA FALLS08-13-2018DISCHARGE (KAF)18025371
64MONO3NF JOHN DAY-AT MONUMENT08-13-2018DISCHARGE (KAF)284168
65CSDI1NF PAYETTE-CASCADE DAM08-13-2018INFLOW (KAF)8275110
66TONW1OKANOGAN-NEAR TONASKET08-13-2018DISCHARGE (KAF)25828491
67OWYO3OWYHEE-OWYHEE DAM08-13-2018INFLOW (KAF)475585
68EMMI1PAYETTE-NEAR EMMETT08-13-2018DISCHARGE (KAF)28537975
69ALFW1PEND OREILLE-ALBENI FALLS DAM08-13-2018INFLOW (KAF)2710348978
70HOPI1PEND OREILLE-PEND OREILLE LAKE NR HOPE08-13-2018LAKE ELEVATION (FT)MMM
71PIHI1PORTNEUF-AT POCATELLO08-13-2018DISCHARGE (KAF)4340109
72PRTI1PRIEST-NEAR PRIEST RIVER08-13-2018DISCHARGE (KAF)7618441
73RCCM8ROCK CREEK-NEAR CLINTON08-13-2018DISCHARGE (KAF)7060117
74WHBI1SALMON-AT WHITEBIRD08-13-2018DISCHARGE (KAF)1131113799
75ARAI1SF BOISE-ANDERSON RANCH DAM08-13-2018INFLOW (KAF)686899
76HHWM8SF FLATHEAD-HUNGRY HORSE DAM08-13-2018INFLOW (KAF)17523375
77PLDI1SF SNAKE-PALISADES DAM08-13-2018INFLOW (KAF)11121012110
78SIFI1SNAKE-AB EAGLE ROCK NR IDAHO FALLS08-13-2018DISCHARGE (KAF)15731006156
79AFRI1SNAKE-AMERICAN FALLS RESERVOIR08-13-2018INFLOW (KAF)18851291146
80SNAI1SNAKE-AT BLACKFOOT08-13-2018DISCHARGE (KAF)1240603206
81MILI1SNAKE-AT MILNER08-13-2018DISCHARGE (KAF)5522425
82WEII1SNAKE-AT WEISER08-13-2018DISCHARGE (KAF)2827323887
83SWAI1SNAKE-BELOW SWAN FALLS08-13-2018DISCHARGE (KAF)1915222986
84BRNI1SNAKE-BROWNLEE DAM08-13-2018INFLOW (KAF)2981330490
85IHDW1SNAKE-ICE HARBOR DAM08-13-2018INFLOW (KAF)5681604594
86JLKW4SNAKE-JACKSON LAKE AT DAM08-13-2018INFLOW (KAF)148128116
87LGSW1SNAKE-LITTLE GOOSE DAM08-13-2018INFLOW (KAF)5664612193
88LGDW1SNAKE-LOWER GRANITE DAM08-13-2018INFLOW (KAF)5664608993
89LMNW1SNAKE-LOWER MONUMENTAL DAM08-13-2018INFLOW (KAF)5678612793
90ALPW4SNAKE-NEAR ALPINE08-13-2018DISCHARGE (KAF)819706116
91ANAW1SNAKE-NEAR ANATONE08-13-2018DISCHARGE (KAF)4375482291
92BFTI1SNAKE-NEAR BLACKFOOT08-13-2018DISCHARGE (KAF)1248628199
93HEII1SNAKE-NEAR HEISE08-13-2018DISCHARGE (KAF)15481187130
94JKSW4SNAKE-NEAR JACKSON08-13-2018DISCHARGE (KAF)684589116
95SHYI1SNAKE-NEAR SHELLEY08-13-2018DISCHARGE (KAF)1525852179
96LLKW1SPOKANE-AT LONGLAKE08-13-2018INFLOW (KAF)61269288
97SPOW1SPOKANE-AT SPOKANE08-13-2018DISCHARGE (KAF)449MM
98SJMI1ST JOE-AT ST MARIES08-13-2018STAGE (FT)MMM
99SATI1ST MARIES-NEAR SANTA08-13-2018DISCHARGE (KAF)161983
100STRM8ST. REGIS-NEAR ST. REGIS08-13-2018DISCHARGE (KAF)253183
101TNAW1TEANAWAY-BELOW FORKS08-13-2018DISCHARGE (KAF)101569
102TEAI1TETON-NEAR ST. ANTHONY08-13-2018DISCHARGE (KAF)147143103
103RILW1TIETON-RIMROCK LAKE NEAR RIMROCK08-13-2018INFLOW (KAF)6461104
104PDTO3UMATILLA-AT PENDLETON08-13-2018DISCHARGE (KAF)162367
105GIBO3UMATILLA-NEAR GIBBON08-13-2018DISCHARGE (KAF)121675
106UMAO3UMATILLA-NEAR UMATILLA08-13-2018DISCHARGE (KAF)5122231
107TCHW1WALLA WALLA-NEAR TOUCHET08-13-2018DISCHARGE (KAF)152756
108WSRI1WEISER-NEAR WEISER08-13-2018DISCHARGE (KAF)445089
109PESW1WENATCHEE-AT PESHASTIN08-13-2018DISCHARGE (KAF)20725183
110UNDW1WHITE SALMON-NEAR UNDERWOOD08-13-2018DISCHARGE (KAF)167163102
111RIDI1WILLOW CREEK-RIRIE DAM08-13-2018INFLOW (KAF)5678
112EASW1YAKIMA-AT EASTON08-13-2018DISCHARGE (KAF)276442
113KIOW1YAKIMA-AT KIONA08-13-2018DISCHARGE (KAF)41851581
114UMTW1YAKIMA-AT UMTANUM08-13-2018DISCHARGE (KAF)424408104
115KEDW1YAKIMA-KEECHELUS LAKE08-13-2018INFLOW (KAF)4535129
116PARW1YAKIMA-NEAR PARKER08-13-2018DISCHARGE (KAF)16222473